classement 2015

 

Image

 

 

 

 

 

 

Ultra Tour de Liège

         
Distance : 65,5          
Date :   18/10/2015          
               
Pos. Nom Prénom Temps Dossard Km/h Pos/Catég. Catég.
1 DE BEUKELAER TOM 5:43:10 283 11,5 1 H
2 LEHANCE CÉDRIC 5:52:01 37 11,2 2 H
3 DEVILLE MATHIEU 5:53:09 915 11,1 3 H
4 FRANCOIS BERTRAND 6:06:53 144 10,7 4 H
5 PETRY CEDRIC 6:26:15 147 10,2 5 H
6 FRAINEUX JEROME 6:26:15 108 10,2 6 H
7 SAUSSAC FLORIAN 6:34:49 184 10,0 7 H
8 TIMMERMANS GAUTHIER 6:35:07 153 9,9 8 H
9 POYSAT GILLES 6:38:49 252 9,9 9 H
10 BEAUSSART SEBASTIEN 6:49:08 81 9,6 10 H
11 SOENEN VIRGINIE 6:52:43 273 9,5 1 F
12 HERPERS JEAN 6:52:43 134 9,5 11 H
13 DAWIRS OLIVIER-GALOPIN 7:01:59 288 9,3 12 H
14 JUST JÖRG 7:04:00 130 9,3 13 H
15 REUL BÉNÉDICTE 7:04:29 18 9,3 2 F
16 PEELEN ANTHONY 7:04:30 178 9,3 14 H
17 DIRIS FRANCOIS 7:04:42 22 9,3 15 H
18 BREVERS JEAN-FRANÇOIS 7:08:54 25 9,2 16 H
19 FAUCONNIER JEAN-FRANÇOIS 7:13:29 133 9,1 17 H
20 COMEL FREDERIC 7:14:55 5 9,0 18 H
21 HUET EMMANUEL 7:14:55 102 9,0 19 H
22 BAAR GRÉGORY 7:15:14 124 9,0 20 H
23 SOKAY THOMAS 7:18:18 905 9,0 21 H
24 PELTIER MATTHIEU 7:21:50 242 8,9 22 H
25 MACHIELS OLIVIER 7:21:50 904 8,9 23 H
26 BOGAERT JOHAN 7:22:18 127 8,9 24 H
27 FRAIPONT JEAN-MARC 7:31:02 222 8,7 25 H
28 ROTTIERS KEN 7:31:24 276 8,7 26 H
29 VAN GENECHTEN KRISTOF 7:31:24 257 8,7 27 H
30 VIS MAREK 7:31:24 296 8,7 28 H
31 VAN DER VELDT TOM 7:31:24 279 8,7 29 H
32 MARTIN ANTOINE 7:35:22 234 8,6 30 H
33 DUTZ OLIVIER 7:36:47 244 8,6 31 H
34 NOVILLE MAURICE 7:42:40 233 8,5 32 H
35 GREGOIRE ETIENNE 7:50:08 284 8,4 33 H
36 DE VEYLDER JAN 7:51:22 299 8,3 34 H
37 HECQ OLIVIER DIT CRUCHOT 7:52:46 39 8,3 35 H
38 GILSON TIMOTHÉE 7:52:55 136 8,3 36 H
39 PINKAERS CHRISTOPHE 7:53:01 194 8,3 37 H
40 BECKERS VINCENT 7:56:18 270 8,3 38 H
41 VAN DER MARK MIKE 7:56:47 168 8,2 39 H
42 SOMVILLE PIERRE RENÉ 7:57:16 128 8,2 40 H
43 HEYNS CHRISTOPHE 7:58:17 85 8,2 41 H
44 D'ODEMONT GRÉGOIRE 7:58:17 152 8,2 42 H
45 REBEIX JEAN-PHILIPPE 7:58:27 170 8,2 43 H
46 KURZ XAVIER 7:59:03 268 8,2 44 H
47 NGUYEN VAN DUNG 7:59:55 193 8,2 45 H
48 DECOEUR CHRISTIANE 8:01:53 59 8,2 3 F
49 BERNARD MARC 8:01:53 243 8,2 46 H
50 PEETERS KURT 8:03:24 117 8,1 47 H
51 ESCALBERT JULIEN 8:04:36 287 8,1 48 H
52 WOOD NICK 8:04:44 161 8,1 49 H
53 HENDRICKX ERIC 8:09:05 72 8,0 50 H
54 MOYEN JONATHAN 8:09:14 113 8,0 51 H
55 DENDAL DIDIER 8:09:24 125 8,0 52 H
56 DELVIGNE JEAN-FRANCOIS 8:09:41 917 8,0 53 H
57 LEROY THEO 8:09:41 901 8,0 54 H
58 JACQMIN NATHANAËL 8:10:01 12 8,0 55 H
59 NOPPE JEAN-PIERRE 8:10:50 123 8,0 56 H
60 CREMER THOMAS 8:10:57 298 8,0 57 H
61 VAN HOYE VICTOR 8:10:57 235 8,0 58 H
62 HUIJBER DENNIS 8:11:49 83 8,0 59 H
63 CELIS PAUL 8:12:40 239 8,0 60 H
64 DELIRE ALAIN 8:12:56 182 8,0 61 H
65 ROOMANS CHRISTIAN 8:14:18 86 8,0 62 H
66 BEYER BRUNO 8:14:18 63 8,0 63 H
67 JEWASINSKI MICHEL 8:14:18 179 8,0 64 H
68 LAINE DINE 8:17:27 290 7,9 4 F
69 DAWIRS ROB 8:24:23 902 7,8 65 H
70 BOUTET CEDRIC 8:26:45 238 7,8 66 H
71 MEUWIS JOËL 8:27:22 58 7,7 67 H
72 REGNIER DIDIER 8:29:09 174 7,7 68 H
73 MARSIN STEPHANE 8:31:32 35 7,7 69 H
74 COOLEN HANS 8:31:39 148 7,7 70 H
75 WUIDARD JEAN-LUC 8:34:24 271 7,6 71 H
76 FRANCO YOANN 8:35:42 195 7,6 72 H
77 LIGOT NICOLAS 8:37:02 6 7,6 73 H
78 GHUISOLAND ALFRED 8:38:23 43 7,6 74 H
79 FAYEULLE THIBAUT 8:38:51 918 7,6 75 H
80 PIRARD OLIVIER 8:39:07 143 7,6 76 H
81 CANIVEZ DENIS 8:39:48 110 7,6 77 H
82 PANZA JEAN-FRANÇOIS 8:42:31 73 7,5 78 H
83 DEWIT GEERT 8:43:02 226 7,5 79 H
84 PREUD'HOMME CEDRIC 8:43:24 111 7,5 80 H
85 PARMENTIER JEROME 8:43:33 186 7,5 81 H
86 FRANCQ SÉBASTIEN 8:44:39 135 7,5 82 H
87 MARIEN IGNAAS 8:45:01 256 7,5 83 H
88 COLARD ANDREW 8:45:54 9 7,5 84 H
89 DELROUALLE ANDRE 8:45:54 98 7,5 85 H
90 ROMAIN XAVIER 8:46:09 187 7,5 86 H
91 CLAES LAURENT 8:46:14 11 7,5 87 H
92 LISIK NATHALIE 8:46:14 88 7,5 5 F
93 LHOEST DANIEL 8:49:40 286 7,4 88 H
94 GARIBALDI ANGELO 8:51:55 259 7,4 89 H
95 LAMBERT GUY 8:51:55 278 7,4 90 H
96 PETERS CHANTAL 8:59:17 240 7,3 6 F
97 PIRLOT AXELLE 8:59:49 122 7,3 7 F
98 VAN DEN EEDE NOELLE 9:02:12 99 7,2 8 F
99 DIERENS DENNIS 9:02:34 261 7,2 91 H
100 BOUCHEZ YANNICK 9:04:28 251 7,2 92 H
101 ADAMS PHILIPPE 9:04:28 297 7,2 93 H
102 VANDER AUWERA FABIEN 9:06:54 21 7,2 94 H
103 CSIK NICOLAS 9:07:05 82 7,2 95 H
104 HERING KARLO 9:08:57 34 7,2 96 H
105 BRAVARD THIERRY 9:10:07 48 7,1 97 H
106 MOERMAN DAVID 9:15:06 172 7,1 98 H
107 VAN DEN BOSSCHE BRUNO 9:17:18 79 7,1 99 H
108 WITTEVRONGEL CHRISTOPHE 9:17:18 103 7,1 100 H
109 BOGAR TONY 9:22:06 84 7,0 101 H
110 COLLARD STEPHANE 9:24:20 911 7,0 102 H
111 BERODE JEROME 9:24:20 910 7,0 103 H
112 FONTAINE SERGE 9:24:20 14 7,0 104 H
113 VEZILIER MICK 9:24:50 171 7,0 105 H
114 DUBOIS GEOFFREY 9:25:24 87 7,0 106 H
115 ROUXHET VINCENT 9:25:24 247 7,0 107 H
116 ROMANIELLO ANDREA 9:25:24 68 7,0 108 H
117 HERKENNE NATHALIE 9:33:40 24 6,9 9 F
118 CHRIST GERARD 9:33:40 913 6,9 109 H
119 SAFIN ANTOINE 9:35:01 129 6,8 110 H
120 LITT JEAN 9:36:02 254 6,8 111 H
121 NEMANN BRUNO 9:42:58 248 6,7 112 H
122 PYJECKI JEROME 9:42:58 140 6,7 113 H
123 COLLINET MARC 9:43:28 285 6,7 114 H
124 KRETTELS GUY 9:45:29 166 6,7 115 H
125 MEDART FABIAN 9:47:10 52 6,7 116 H
126 DE BLOCK THIERRY 9:51:07 141 6,6 117 H
127 CLOSE DODO 9:51:25 263 6,6 118 H
128 QUESTIAUX JEAN-FRANCOIS 9:54:09 190 6,6 119 H
129 LEJEUNE CHRISTINE 9:55:20 230 6,6 10 F
130 LEUNEN CHRISTOPHE 9:59:14 3 6,6 120 H
131 DANDOIS YANNICK 9:59:14 16 6,6 121 H
132 JAMIN DOMINIQUE 10:02:15 2 6,5 122 H
133 BECKERS PASCAL 10:02:15 241 6,5 123 H
134 ANNEGARN ELS 10:03:20 249 6,5 11 F
135 FONTAINE DENIS 10:03:52 109 6,5 124 H
136 TOURY STEPHANE 10:03:52 107 6,5 125 H
137 GOOSSE NATHALIE 10:09:02 221 6,5 12 F
138 CARAMIA VINCENZO 10:09:02 196 6,5 126 H
139 LAQUAYE DIDIER 10:11:48 60 6,4 127 H
140 DEMOULIN ANNEKE 10:14:27 145 6,4 13 F
141 GODEFROID GADA 10:14:27 176 6,4 128 H
142 FRAIKIN MAXIME 10:14:27 55 6,4 129 H
143 DUFOUR RENÉ 10:18:40 121 6,4 130 H
144 NAVARRO NICOLAS 10:18:40 175 6,4 131 H
145 JACOB BERNARD 10:18:40 914 6,4 132 H
146 RASQUIN YVES 10:20:08 95 6,3 133 H
147 ANDRE CLAUDETTE 10:21:05 264 6,3 14 F
148 PIRONNET ERIC 10:24:49 100 6,3 134 H
149 PENAY ERIC 10:41:15 64 6,1 135 H
150 KAIRIS PATRICK 10:55:31 154 6,0 136 H
151 HENROTTIN PIERRE 11:13:53 292 5,8 137 H
152 DAWIRS MICHEL 12:03:13 70 5,4 138 H